Time,TemperatureF,DewpointF,PressureIn,WindDirection,WindDirectionDegrees,WindSpeedMPH,WindSpeedGustMPH,Humidity,HourlyPrecipIn,Conditions,Clouds,dailyrainin,SoftwareType,DateUTC
2013-04-16 00:00:00,59.6,47.4,30.03,SSW,195,5.0,5.0,64,0.00,,,0.00,Wunderground v.1.15,2013-04-16 04:00:00,
2013-04-16 00:03:00,59.5,47.3,30.03,SSW,192,6.0,6.0,64,0.00,,,0.00,Wunderground v.1.15,2013-04-16 04:03:00,
2013-04-16 00:04:00,59.5,47.3,30.03,SSE,149,4.0,6.0,64,0.00,,,0.00,Wunderground v.1.15,2013-04-16 04:04:00,
2013-04-16 00:05:00,59.5,47.7,30.03,SSW,196,3.0,6.0,65,0.00,,,0.00,Wunderground v.1.15,2013-04-16 04:05:00,
2013-04-16 00:11:00,59.3,47.5,30.03,SW,217,9.0,9.0,65,0.00,,,0.00,Wunderground v.1.15,2013-04-16 04:11:00,
2013-04-16 00:16:00,59.1,47.3,30.03,SSW,210,3.0,9.0,65,0.00,,,0.00,Wunderground v.1.15,2013-04-16 04:16:00,
2013-04-16 00:21:00,59.0,47.7,30.03,South,178,3.0,4.0,66,0.00,,,0.00,Wunderground v.1.15,2013-04-16 04:21:00,
2013-04-16 00:26:00,58.9,47.6,30.03,SSW,200,6.0,6.0,66,0.00,,,0.00,Wunderground v.1.15,2013-04-16 04:26:00,
2013-04-16 00:32:00,58.8,47.5,30.03,SSW,195,8.0,8.0,66,0.00,,,0.00,Wunderground v.1.15,2013-04-16 04:32:00,
2013-04-16 00:37:00,58.7,47.4,30.03,SW,225,3.0,8.0,66,0.00,,,0.00,Wunderground v.1.15,2013-04-16 04:37:00,
2013-04-16 00:42:00,58.5,47.6,30.03,SSE,150,5.0,5.0,67,0.00,,,0.00,Wunderground v.1.15,2013-04-16 04:42:00,
2013-04-16 00:47:00,58.5,47.6,30.03,SSW,194,3.0,6.0,67,0.00,,,0.00,Wunderground v.1.15,2013-04-16 04:47:00,
2013-04-16 00:52:00,58.5,47.6,30.03,SSW,208,2.0,4.0,67,0.00,,,0.00,Wunderground v.1.15,2013-04-16 04:52:00,
2013-04-16 00:57:00,58.4,47.9,30.03,WSW,242,5.0,6.0,68,0.00,,,0.00,Wunderground v.1.15,2013-04-16 04:57:00,
2013-04-16 01:03:00,58.4,47.9,30.03,WSW,243,3.0,3.0,68,0.00,,,0.00,Wunderground v.1.15,2013-04-16 05:03:00,
2013-04-16 01:09:00,58.5,48.0,30.03,SSE,161,1.0,5.0,68,0.00,,,0.00,Wunderground v.1.15,2013-04-16 05:09:00,
2013-04-16 01:14:00,58.6,48.1,30.03,South,180,2.0,4.0,68,0.00,,,0.00,Wunderground v.1.15,2013-04-16 05:14:00,
2013-04-16 01:19:00,58.6,48.1,30.03,SSE,150,5.0,5.0,68,0.00,,,0.00,Wunderground v.1.15,2013-04-16 05:19:00,
2013-04-16 01:25:00,58.6,48.1,30.03,South,171,3.0,5.0,68,0.00,,,0.00,Wunderground v.1.15,2013-04-16 05:25:00,
2013-04-16 01:30:00,58.7,48.2,30.02,South,190,2.0,4.0,68,0.00,,,0.00,Wunderground v.1.15,2013-04-16 05:30:00,
2013-04-16 01:35:00,58.6,48.1,30.02,SSE,165,2.0,5.0,68,0.00,,,0.00,Wunderground v.1.15,2013-04-16 05:35:00,
2013-04-16 01:40:00,58.6,48.1,30.02,SSW,213,4.0,4.0,68,0.00,,,0.00,Wunderground v.1.15,2013-04-16 05:40:00,
2013-04-16 01:45:00,58.5,48.0,30.02,SW,216,7.0,7.0,68,0.00,,,0.00,Wunderground v.1.15,2013-04-16 05:45:00,
2013-04-16 01:51:00,58.5,48.0,30.02,SSW,198,2.0,4.0,68,0.00,,,0.00,Wunderground v.1.15,2013-04-16 05:51:00,
2013-04-16 01:56:00,58.5,48.0,30.02,South,184,4.0,6.0,68,0.00,,,0.00,Wunderground v.1.15,2013-04-16 05:56:00,
2013-04-16 02:02:00,58.6,48.1,30.02,South,176,4.0,4.0,68,0.00,,,0.00,Wunderground v.1.15,2013-04-16 06:02:00,
2013-04-16 02:07:00,58.6,47.7,30.02,SSW,202,1.0,10.0,67,0.00,,,0.00,Wunderground v.1.15,2013-04-16 06:07:00,
2013-04-16 02:12:00,58.4,47.9,30.02,WSW,256,4.0,8.0,68,0.00,,,0.00,Wunderground v.1.15,2013-04-16 06:12:00,
2013-04-16 02:17:00,58.2,47.7,30.01,SSE,167,6.0,8.0,68,0.00,,,0.00,Wunderground v.1.15,2013-04-16 06:17:00,
2013-04-16 02:22:00,58.3,47.8,30.01,South,186,5.0,5.0,68,0.00,,,0.00,Wunderground v.1.15,2013-04-16 06:22:00,
2013-04-16 02:27:00,58.3,47.8,30.01,South,179,6.0,6.0,68,0.00,,,0.00,Wunderground v.1.15,2013-04-16 06:27:00,
2013-04-16 02:32:00,58.4,47.9,30.01,SSE,167,7.0,7.0,68,0.00,,,0.00,Wunderground v.1.15,2013-04-16 06:32:00,
2013-04-16 02:37:00,58.5,48.0,30.01,SW,215,4.0,11.0,68,0.00,,,0.00,Wunderground v.1.15,2013-04-16 06:37:00,
2013-04-16 02:42:00,58.5,48.4,30.01,SSE,157,3.0,5.0,69,0.00,,,0.00,Wunderground v.1.15,2013-04-16 06:42:00,
2013-04-16 02:47:00,58.6,48.1,30.01,SSW,196,6.0,10.0,68,0.00,,,0.00,Wunderground v.1.15,2013-04-16 06:47:00,
2013-04-16 02:52:00,58.6,48.5,30.00,SSW,204,4.0,8.0,69,0.00,,,0.00,Wunderground v.1.15,2013-04-16 06:52:00,
2013-04-16 02:57:00,58.5,48.4,30.00,SSE,167,5.0,8.0,69,0.00,,,0.00,Wunderground v.1.15,2013-04-16 06:57:00,
2013-04-16 03:02:00,58.5,48.4,30.00,SW,221,7.0,7.0,69,0.00,,,0.00,Wunderground v.1.15,2013-04-16 07:02:00,
2013-04-16 03:07:00,58.4,48.3,30.00,South,175,6.0,9.0,69,0.00,,,0.00,Wunderground v.1.15,2013-04-16 07:07:00,
2013-04-16 03:12:00,58.4,48.3,30.00,SSW,195,7.0,8.0,69,0.00,,,0.00,Wunderground v.1.15,2013-04-16 07:12:00,
2013-04-16 03:17:00,58.5,48.7,30.00,South,180,5.0,12.0,70,0.00,,,0.00,Wunderground v.1.15,2013-04-16 07:17:00,
2013-04-16 03:22:00,58.6,48.8,30.00,SE,131,5.0,11.0,70,0.00,,,0.00,Wunderground v.1.15,2013-04-16 07:22:00,
2013-04-16 03:27:00,58.7,48.9,30.00,SW,222,2.0,11.0,70,0.00,,,0.00,Wunderground v.1.15,2013-04-16 07:27:00,
2013-04-16 03:32:00,58.7,48.9,30.00,WSW,248,3.0,6.0,70,0.00,,,0.00,Wunderground v.1.15,2013-04-16 07:32:00,
2013-04-16 03:37:00,58.7,48.9,30.00,SSW,198,5.0,12.0,70,0.00,,,0.00,Wunderground v.1.15,2013-04-16 07:37:00,
2013-04-16 03:42:00,58.8,49.0,30.00,SSE,155,7.0,9.0,70,0.00,,,0.00,Wunderground v.1.15,2013-04-16 07:42:00,
2013-04-16 03:47:00,58.9,49.1,29.99,South,189,4.0,12.0,70,0.00,,,0.00,Wunderground v.1.15,2013-04-16 07:47:00,
2013-04-16 03:52:00,58.8,49.0,29.99,SSW,205,3.0,9.0,70,0.00,,,0.00,Wunderground v.1.15,2013-04-16 07:52:00,
2013-04-16 03:58:00,58.6,49.2,29.99,South,183,4.0,9.0,71,0.00,,,0.00,Wunderground v.1.15,2013-04-16 07:58:00,
2013-04-16 04:03:00,58.6,49.2,29.99,South,188,6.0,9.0,71,0.00,,,0.00,Wunderground v.1.15,2013-04-16 08:03:00,
2013-04-16 04:08:00,58.6,49.2,30.00,SW,227,6.0,9.0,71,0.00,,,0.00,Wunderground v.1.15,2013-04-16 08:08:00,
2013-04-16 04:13:00,58.5,49.5,30.00,South,190,2.0,8.0,72,0.00,,,0.00,Wunderground v.1.15,2013-04-16 08:13:00,
2013-04-16 04:18:00,58.4,49.4,30.00,South,175,3.0,8.0,72,0.00,,,0.00,Wunderground v.1.15,2013-04-16 08:18:00,
2013-04-16 04:23:00,58.2,49.2,29.99,SSW,199,2.0,6.0,72,0.00,,,0.00,Wunderground v.1.15,2013-04-16 08:23:00,
2013-04-16 04:28:00,58.2,49.2,29.99,SW,232,4.0,7.0,72,0.00,,,0.00,Wunderground v.1.15,2013-04-16 08:28:00,
2013-04-16 04:33:00,58.2,49.2,30.00,SSW,194,0.0,6.0,72,0.00,,,0.00,Wunderground v.1.15,2013-04-16 08:33:00,
2013-04-16 04:38:00,58.1,49.5,29.99,SE,139,7.0,8.0,73,0.00,,,0.00,Wunderground v.1.15,2013-04-16 08:38:00,
2013-04-16 04:43:00,58.1,49.5,29.99,SSW,196,2.0,9.0,73,0.00,,,0.00,Wunderground v.1.15,2013-04-16 08:43:00,
2013-04-16 04:48:00,58.0,49.4,29.98,South,184,4.0,9.0,73,0.00,,,0.00,Wunderground v.1.15,2013-04-16 08:48:00,
2013-04-16 04:53:00,58.0,49.4,29.98,South,175,5.0,9.0,73,0.00,,,0.00,Wunderground v.1.15,2013-04-16 08:53:00,
2013-04-16 04:58:00,57.9,49.7,29.98,WSW,252,2.0,9.0,74,0.00,,,0.00,Wunderground v.1.15,2013-04-16 08:58:00,
2013-04-16 05:03:00,57.9,49.7,29.98,SSW,198,5.0,9.0,74,0.00,,,0.00,Wunderground v.1.15,2013-04-16 09:03:00,
2013-04-16 05:08:00,57.9,49.7,29.98,SSE,160,4.0,10.0,74,0.00,,,0.00,Wunderground v.1.15,2013-04-16 09:08:00,
2013-04-16 05:13:00,57.8,49.6,29.98,SSW,196,4.0,7.0,74,0.00,,,0.00,Wunderground v.1.15,2013-04-16 09:13:00,
2013-04-16 05:18:00,57.7,49.5,29.98,SSW,207,3.0,7.0,74,0.00,,,0.00,Wunderground v.1.15,2013-04-16 09:18:00,
2013-04-16 05:23:00,57.6,49.4,29.98,SSE,167,3.0,8.0,74,0.00,,,0.00,Wunderground v.1.15,2013-04-16 09:23:00,
2013-04-16 05:28:00,57.5,49.6,29.98,SSE,163,6.0,8.0,75,0.00,,,0.00,Wunderground v.1.15,2013-04-16 09:28:00,
2013-04-16 05:33:00,57.5,49.6,29.98,SE,145,4.0,7.0,75,0.00,,,0.00,Wunderground v.1.15,2013-04-16 09:33:00,
2013-04-16 05:38:00,57.6,49.7,29.98,SSW,198,7.0,8.0,75,0.00,,,0.00,Wunderground v.1.15,2013-04-16 09:38:00,
2013-04-16 05:43:00,57.6,49.7,29.98,SSW,198,9.0,12.0,75,0.00,,,0.00,Wunderground v.1.15,2013-04-16 09:43:00,
2013-04-16 05:49:00,57.7,49.8,29.98,SSE,167,3.0,12.0,75,0.00,,,0.00,Wunderground v.1.15,2013-04-16 09:49:00,
2013-04-16 05:54:00,57.7,49.8,29.98,South,190,4.0,10.0,75,0.00,,,0.00,Wunderground v.1.15,2013-04-16 09:54:00,
2013-04-16 05:59:00,57.7,49.8,29.98,SSW,207,2.0,10.0,75,0.00,,,0.00,Wunderground v.1.15,2013-04-16 09:59:00,
2013-04-16 06:04:00,57.6,49.7,29.98,SSW,207,2.0,7.0,75,0.00,,,0.00,Wunderground v.1.15,2013-04-16 10:04:00,
2013-04-16 06:09:00,57.6,49.7,29.98,SE,146,4.0,11.0,75,0.00,,,0.00,Wunderground v.1.15,2013-04-16 10:09:00,
2013-04-16 06:14:00,57.6,49.7,29.98,South,178,3.0,6.0,75,0.00,,,0.00,Wunderground v.1.15,2013-04-16 10:14:00,
2013-04-16 06:19:00,57.4,49.5,29.98,SSE,153,7.0,7.0,75,0.00,,,0.00,Wunderground v.1.15,2013-04-16 10:19:00,
2013-04-16 06:24:00,57.4,49.5,29.99,SSW,197,2.0,5.0,75,0.00,,,0.00,Wunderground v.1.15,2013-04-16 10:24:00,
2013-04-16 06:29:00,57.3,49.8,29.99,NW,311,1.0,5.0,76,0.00,,,0.00,Wunderground v.1.15,2013-04-16 10:29:00,
2013-04-16 06:34:00,57.4,49.9,29.99,SE,135,0.0,5.0,76,0.00,,,0.00,Wunderground v.1.15,2013-04-16 10:34:00,
2013-04-16 06:39:00,57.3,49.8,29.98,East,90,2.0,5.0,76,0.00,,,0.00,Wunderground v.1.15,2013-04-16 10:39:00,
2013-04-16 06:44:00,57.3,49.8,29.98,SSW,196,4.0,4.0,76,0.00,,,0.00,Wunderground v.1.15,2013-04-16 10:44:00,
2013-04-16 06:49:00,57.3,49.8,29.98,ESE,119,2.0,5.0,76,0.00,,,0.00,Wunderground v.1.15,2013-04-16 10:49:00,
2013-04-16 06:54:00,57.4,49.9,29.98,South,176,3.0,6.0,76,0.00,,,0.00,Wunderground v.1.15,2013-04-16 10:54:00,
2013-04-16 06:59:00,57.7,50.2,29.98,South,170,2.0,6.0,76,0.00,,,0.00,Wunderground v.1.15,2013-04-16 10:59:00,
2013-04-16 07:04:00,57.8,50.3,29.98,SSW,208,2.0,4.0,76,0.00,,,0.00,Wunderground v.1.15,2013-04-16 11:04:00,
2013-04-16 07:09:00,58.1,50.2,29.98,South,191,5.0,6.0,75,0.00,,,0.00,Wunderground v.1.15,2013-04-16 11:09:00,
2013-04-16 07:14:00,58.2,50.3,29.98,SW,223,3.0,6.0,75,0.00,,,0.00,Wunderground v.1.15,2013-04-16 11:14:00,
2013-04-16 07:19:00,58.4,50.5,29.97,SSE,165,3.0,3.0,75,0.00,,,0.00,Wunderground v.1.15,2013-04-16 11:19:00,
2013-04-16 07:24:00,58.5,50.6,29.97,South,184,2.0,10.0,75,0.00,,,0.00,Wunderground v.1.15,2013-04-16 11:24:00,
2013-04-16 07:29:00,58.7,50.4,29.97,South,191,2.0,4.0,74,0.00,,,0.00,Wunderground v.1.15,2013-04-16 11:29:00,
2013-04-16 07:34:00,59.0,50.7,29.98,SW,217,5.0,6.0,74,0.00,,,0.00,Wunderground v.1.15,2013-04-16 11:34:00,
2013-04-16 07:39:00,59.1,50.8,29.98,SW,214,3.0,4.0,74,0.00,,,0.00,Wunderground v.1.15,2013-04-16 11:39:00,
2013-04-16 07:44:00,59.1,50.8,29.98,SW,215,3.0,7.0,74,0.00,,,0.00,Wunderground v.1.15,2013-04-16 11:44:00,
2013-04-16 07:49:00,59.3,51.0,29.98,SE,132,2.0,3.0,74,0.00,,,0.00,Wunderground v.1.15,2013-04-16 11:49:00,
2013-04-16 07:54:00,59.5,50.8,29.98,SSW,202,3.0,7.0,73,0.00,,,0.00,Wunderground v.1.15,2013-04-16 11:54:00,
2013-04-16 07:59:00,59.7,51.4,29.97,South,174,3.0,4.0,74,0.00,,,0.00,Wunderground v.1.15,2013-04-16 11:59:00,
2013-04-16 08:05:00,59.8,51.1,29.97,SSE,161,4.0,9.0,73,0.00,,,0.00,Wunderground v.1.15,2013-04-16 12:05:00,
2013-04-16 08:09:00,59.9,51.2,29.96,South,178,3.0,4.0,73,0.00,,,0.00,Wunderground v.1.15,2013-04-16 12:09:00,
2013-04-16 08:14:00,60.2,51.5,29.96,SSE,161,7.0,7.0,73,0.00,,,0.00,Wunderground v.1.15,2013-04-16 12:14:00,
2013-04-16 08:19:00,60.7,51.2,29.96,South,186,4.0,4.0,71,0.00,,,0.00,Wunderground v.1.15,2013-04-16 12:19:00,
2013-04-16 08:24:00,61.3,51.8,29.96,SSW,205,6.0,16.0,71,0.00,,,0.00,Wunderground v.1.15,2013-04-16 12:24:00,
2013-04-16 08:29:00,61.7,51.8,29.96,SSW,212,3.0,6.0,70,0.00,,,0.00,Wunderground v.1.15,2013-04-16 12:29:00,
2013-04-16 08:35:00,62.3,52.0,29.95,SSW,208,4.0,12.0,69,0.00,,,0.00,Wunderground v.1.15,2013-04-16 12:35:00,
2013-04-16 08:40:00,62.8,52.1,29.95,South,185,4.0,8.0,68,0.00,,,0.00,Wunderground v.1.15,2013-04-16 12:40:00,
2013-04-16 08:45:00,63.0,52.3,29.95,SW,220,3.0,11.0,68,0.00,,,0.00,Wunderground v.1.15,2013-04-16 12:45:00,
2013-04-16 08:50:00,63.2,52.5,29.95,SW,223,3.0,6.0,68,0.00,,,0.00,Wunderground v.1.15,2013-04-16 12:50:00,
2013-04-16 08:55:00,63.5,52.3,29.95,South,180,4.0,15.0,67,0.00,,,0.00,Wunderground v.1.15,2013-04-16 12:55:00,
2013-04-16 09:00:00,63.6,52.4,29.95,SW,234,7.0,8.0,67,0.00,,,0.00,Wunderground v.1.15,2013-04-16 13:00:00,
2013-04-16 09:05:00,63.5,52.3,29.95,SSW,198,7.0,13.0,67,0.00,,,0.00,Wunderground v.1.15,2013-04-16 13:05:00,
2013-04-16 09:10:00,63.5,52.3,29.95,SW,234,5.0,7.0,67,0.00,,,0.00,Wunderground v.1.15,2013-04-16 13:10:00,
2013-04-16 09:15:00,63.7,52.5,29.95,SSW,213,3.0,10.0,67,0.00,,,0.00,Wunderground v.1.15,2013-04-16 13:15:00,
2013-04-16 09:20:00,63.9,52.7,29.95,WSW,245,4.0,6.0,67,0.00,,,0.00,Wunderground v.1.15,2013-04-16 13:20:00,
2013-04-16 09:25:00,64.1,52.9,29.95,South,180,9.0,15.0,67,0.00,,,0.00,Wunderground v.1.15,2013-04-16 13:25:00,
2013-04-16 09:30:00,64.1,52.9,29.94,SSW,199,7.0,9.0,67,0.00,,,0.00,Wunderground v.1.15,2013-04-16 13:30:00,
2013-04-16 09:35:00,64.1,52.9,29.94,SW,222,8.0,11.0,67,0.00,,,0.00,Wunderground v.1.15,2013-04-16 13:35:00,
2013-04-16 09:40:00,64.2,53.0,29.94,SW,214,7.0,10.0,67,0.00,,,0.00,Wunderground v.1.15,2013-04-16 13:40:00,
2013-04-16 09:45:00,64.4,53.2,29.94,SW,220,3.0,13.0,67,0.00,,,0.00,Wunderground v.1.15,2013-04-16 13:45:00,
2013-04-16 09:50:00,64.5,52.9,29.94,WNW,302,6.0,8.0,66,0.00,,,0.00,Wunderground v.1.15,2013-04-16 13:50:00,
2013-04-16 09:55:00,64.6,53.0,29.93,SSW,209,6.0,16.0,66,0.00,,,0.00,Wunderground v.1.15,2013-04-16 13:55:00,
2013-04-16 10:00:00,64.8,53.2,29.93,SSW,199,7.0,7.0,66,0.00,,,0.00,Wunderground v.1.15,2013-04-16 14:00:00,
2013-04-16 10:05:00,64.9,53.3,29.94,SSW,206,3.0,13.0,66,0.00,,,0.00,Wunderground v.1.15,2013-04-16 14:05:00,
2013-04-16 10:10:00,65.0,53.4,29.94,WSW,244,5.0,6.0,66,0.00,,,0.00,Wunderground v.1.15,2013-04-16 14:10:00,
2013-04-16 10:15:00,65.0,52.9,29.93,WSW,239,5.0,15.0,65,0.00,,,0.00,Wunderground v.1.15,2013-04-16 14:15:00,
2013-04-16 10:20:00,65.1,53.5,29.93,SW,217,4.0,8.0,66,0.00,,,0.00,Wunderground v.1.15,2013-04-16 14:20:00,
2013-04-16 10:25:00,65.3,53.2,29.93,SW,227,2.0,12.0,65,0.00,,,0.00,Wunderground v.1.15,2013-04-16 14:25:00,
2013-04-16 10:30:00,65.4,53.3,29.94,SSW,193,10.0,10.0,65,0.00,,,0.00,Wunderground v.1.15,2013-04-16 14:30:00,
2013-04-16 10:35:00,65.5,53.4,29.94,SSW,211,4.0,12.0,65,0.00,,,0.00,Wunderground v.1.15,2013-04-16 14:35:00,
2013-04-16 10:40:00,65.7,53.6,29.94,SW,226,4.0,11.0,65,0.00,,,0.00,Wunderground v.1.15,2013-04-16 14:40:00,
2013-04-16 10:45:00,65.9,53.4,29.94,SSW,208,7.0,14.0,64,0.00,,,0.00,Wunderground v.1.15,2013-04-16 14:45:00,
2013-04-16 10:50:00,66.0,53.5,29.94,SSE,157,10.0,10.0,64,0.00,,,0.00,Wunderground v.1.15,2013-04-16 14:50:00,
2013-04-16 10:55:00,66.2,53.7,29.94,SW,225,6.0,15.0,64,0.00,,,0.00,Wunderground v.1.15,2013-04-16 14:55:00,
2013-04-16 11:00:00,66.3,53.8,29.95,SW,228,4.0,13.0,64,0.00,,,0.00,Wunderground v.1.15,2013-04-16 15:00:00,
2013-04-16 11:05:00,66.3,53.8,29.95,WSW,257,6.0,16.0,64,0.00,,,0.00,Wunderground v.1.15,2013-04-16 15:05:00,
2013-04-16 11:10:00,66.2,53.7,29.95,SW,216,8.0,8.0,64,0.00,,,0.00,Wunderground v.1.15,2013-04-16 15:10:00,
2013-04-16 11:15:00,66.1,53.6,29.95,SSW,192,6.0,17.0,64,0.00,,,0.00,Wunderground v.1.15,2013-04-16 15:15:00,
2013-04-16 11:20:00,66.4,53.8,29.94,SSW,192,9.0,10.0,64,0.00,,,0.00,Wunderground v.1.15,2013-04-16 15:20:00,
2013-04-16 11:25:00,66.6,54.0,29.95,SW,235,7.0,16.0,64,0.00,,,0.00,Wunderground v.1.15,2013-04-16 15:25:00,
2013-04-16 11:30:00,66.6,54.0,29.95,WSW,245,3.0,13.0,64,0.00,,,0.00,Wunderground v.1.15,2013-04-16 15:30:00,
2013-04-16 11:35:00,66.4,54.3,29.96,SW,229,10.0,14.0,65,0.00,,,0.00,Wunderground v.1.15,2013-04-16 15:35:00,
2013-04-16 11:40:00,66.1,54.0,29.96,SSW,213,6.0,11.0,65,0.00,,,0.00,Wunderground v.1.15,2013-04-16 15:40:00,
2013-04-16 11:45:00,65.8,54.1,29.95,SSW,202,7.0,13.0,66,0.00,,,0.00,Wunderground v.1.15,2013-04-16 15:45:00,
2013-04-16 11:50:00,65.5,54.2,29.96,WSW,240,5.0,10.0,67,0.00,,,0.00,Wunderground v.1.15,2013-04-16 15:50:00,
2013-04-16 11:55:00,64.7,55.1,29.96,WSW,250,8.0,14.0,71,0.00,,,0.00,Wunderground v.1.15,2013-04-16 15:55:00,
2013-04-16 12:00:00,63.2,55.9,29.96,WSW,239,7.0,9.0,77,0.00,,,0.00,Wunderground v.1.15,2013-04-16 16:00:00,
2013-04-16 12:05:00,62.0,56.1,29.97,SW,218,6.0,11.0,81,0.00,,,0.01,Wunderground v.1.15,2013-04-16 16:05:00,
2013-04-16 12:10:00,61.2,56.3,29.96,SW,229,4.0,7.0,84,0.00,,,0.01,Wunderground v.1.15,2013-04-16 16:10:00,
2013-04-16 12:15:00,60.8,56.3,29.93,SW,223,4.0,11.0,85,0.06,,,0.02,Wunderground v.1.15,2013-04-16 16:15:00,
2013-04-16 12:20:00,60.5,56.3,29.93,South,179,7.0,7.0,86,0.06,,,0.02,Wunderground v.1.15,2013-04-16 16:20:00,
2013-04-16 12:25:00,60.3,56.1,29.94,SW,220,5.0,10.0,86,0.04,,,0.02,Wunderground v.1.15,2013-04-16 16:25:00,
2013-04-16 12:30:00,60.5,56.6,29.94,WSW,257,3.0,9.0,87,0.00,,,0.02,Wunderground v.1.15,2013-04-16 16:30:00,
2013-04-16 12:36:00,60.8,56.3,29.94,SW,217,15.0,15.0,85,0.00,,,0.02,Wunderground v.1.15,2013-04-16 16:36:00,
2013-04-16 12:41:00,61.3,56.4,29.94,SW,217,8.0,11.0,84,0.00,,,0.02,Wunderground v.1.15,2013-04-16 16:41:00,
2013-04-16 12:46:00,61.6,56.7,29.95,South,180,4.0,11.0,84,0.00,,,0.02,Wunderground v.1.15,2013-04-16 16:46:00,
2013-04-16 12:51:00,62.0,56.8,29.95,WSW,242,4.0,6.0,83,0.00,,,0.02,Wunderground v.1.15,2013-04-16 16:51:00,
2013-04-16 12:56:00,62.3,56.7,29.95,SW,222,5.0,7.0,82,0.00,,,0.02,Wunderground v.1.15,2013-04-16 16:56:00,
2013-04-16 13:01:00,62.6,56.7,29.95,SW,223,3.0,12.0,81,0.00,,,0.02,Wunderground v.1.15,2013-04-16 17:01:00,
2013-04-16 13:06:00,62.9,57.0,29.95,West,261,4.0,12.0,81,0.00,,,0.02,Wunderground v.1.15,2013-04-16 17:06:00,
2013-04-16 13:11:00,63.0,56.7,29.95,SW,223,3.0,8.0,80,0.00,,,0.02,Wunderground v.1.15,2013-04-16 17:11:00,
2013-04-16 13:17:00,62.9,57.0,29.95,SSW,198,7.0,15.0,81,0.00,,,0.02,Wunderground v.1.15,2013-04-16 17:17:00,
2013-04-16 13:22:00,62.6,57.4,29.95,West,267,4.0,9.0,83,0.00,,,0.02,Wunderground v.1.15,2013-04-16 17:22:00,
2013-04-16 13:27:00,62.4,57.5,29.95,SW,231,4.0,9.0,84,0.00,,,0.02,Wunderground v.1.15,2013-04-16 17:27:00,
2013-04-16 13:32:00,62.4,57.8,29.95,SSW,213,2.0,6.0,85,0.00,,,0.03,Wunderground v.1.15,2013-04-16 17:32:00,
2013-04-16 13:37:00,62.3,58.1,29.95,WSW,240,5.0,8.0,86,0.00,,,0.03,Wunderground v.1.15,2013-04-16 17:37:00,
2013-04-16 13:42:00,62.2,57.6,29.95,SW,221,3.0,8.0,85,0.00,,,0.03,Wunderground v.1.15,2013-04-16 17:42:00,
2013-04-16 13:47:00,62.4,57.5,29.95,SSW,205,4.0,9.0,84,0.00,,,0.03,Wunderground v.1.15,2013-04-16 17:47:00,
2013-04-16 13:52:00,62.7,57.5,29.95,WSW,255,2.0,7.0,83,0.00,,,0.03,Wunderground v.1.15,2013-04-16 17:52:00,
2013-04-16 13:57:00,62.9,57.3,29.96,WSW,241,1.0,9.0,82,0.00,,,0.03,Wunderground v.1.15,2013-04-16 17:57:00,
2013-04-16 14:02:00,63.1,57.5,29.95,WSW,244,9.0,11.0,82,0.00,,,0.03,Wunderground v.1.15,2013-04-16 18:02:00,
2013-04-16 14:07:00,63.2,57.6,29.95,West,272,9.0,11.0,82,0.00,,,0.03,Wunderground v.1.15,2013-04-16 18:07:00,
2013-04-16 14:12:00,63.5,57.9,29.95,SSW,207,8.0,10.0,82,0.00,,,0.03,Wunderground v.1.15,2013-04-16 18:12:00,
2013-04-16 14:17:00,63.8,57.9,29.94,South,190,2.0,10.0,81,0.00,,,0.03,Wunderground v.1.15,2013-04-16 18:17:00,
2013-04-16 14:22:00,64.0,58.1,29.94,SW,234,3.0,8.0,81,0.00,,,0.03,Wunderground v.1.15,2013-04-16 18:22:00,
2013-04-16 14:27:00,64.0,58.1,29.94,SW,217,6.0,11.0,81,0.00,,,0.03,Wunderground v.1.15,2013-04-16 18:27:00,
2013-04-16 14:32:00,64.0,57.7,29.94,SW,229,4.0,10.0,80,0.00,,,0.03,Wunderground v.1.15,2013-04-16 18:32:00,
2013-04-16 14:37:00,63.9,57.6,29.94,WSW,248,3.0,10.0,80,0.00,,,0.03,Wunderground v.1.15,2013-04-16 18:37:00,
2013-04-16 14:42:00,63.8,57.5,29.94,WSW,237,5.0,6.0,80,0.00,,,0.03,Wunderground v.1.15,2013-04-16 18:42:00,
2013-04-16 14:47:00,63.8,57.5,29.94,SSW,210,2.0,6.0,80,0.00,,,0.03,Wunderground v.1.15,2013-04-16 18:47:00,
2013-04-16 14:52:00,63.8,57.5,29.94,SW,227,3.0,4.0,80,0.00,,,0.03,Wunderground v.1.15,2013-04-16 18:52:00,
2013-04-16 14:57:00,63.9,58.0,29.94,SSW,211,2.0,7.0,81,0.00,,,0.03,Wunderground v.1.15,2013-04-16 18:57:00,
2013-04-16 15:02:00,63.8,57.9,29.94,SW,215,4.0,6.0,81,0.00,,,0.03,Wunderground v.1.15,2013-04-16 19:02:00,
2013-04-16 15:07:00,63.8,57.9,29.94,WSW,257,2.0,10.0,81,0.00,,,0.03,Wunderground v.1.15,2013-04-16 19:07:00,
2013-04-16 15:12:00,63.7,58.1,29.94,SSW,202,4.0,7.0,82,0.00,,,0.03,Wunderground v.1.15,2013-04-16 19:12:00,
2013-04-16 15:17:00,63.7,58.1,29.94,West,263,3.0,7.0,82,0.00,,,0.03,Wunderground v.1.15,2013-04-16 19:17:00,
2013-04-16 15:22:00,63.7,58.4,29.94,WNW,295,1.0,3.0,83,0.00,,,0.03,Wunderground v.1.15,2013-04-16 19:22:00,
2013-04-16 15:27:00,63.5,58.6,29.94,West,263,2.0,6.0,84,0.00,,,0.03,Wunderground v.1.15,2013-04-16 19:27:00,
2013-04-16 15:32:00,63.3,58.7,29.94,WSW,244,3.0,4.0,85,0.00,,,0.03,Wunderground v.1.15,2013-04-16 19:32:00,
2013-04-16 15:38:00,63.0,58.7,29.94,NW,319,1.0,5.0,86,0.00,,,0.03,Wunderground v.1.15,2013-04-16 19:38:00,
2013-04-16 15:43:00,62.6,58.7,29.94,NNW,336,4.0,11.0,87,0.00,,,0.03,Wunderground v.1.15,2013-04-16 19:43:00,
2013-04-16 15:48:00,59.8,54.0,29.95,NW,325,4.0,11.0,81,0.00,,,0.03,Wunderground v.1.15,2013-04-16 19:48:00,
2013-04-16 15:53:00,56.7,52.2,29.95,North,355,5.0,11.0,85,0.00,,,0.04,Wunderground v.1.15,2013-04-16 19:53:00,
2013-04-16 15:58:00,54.9,51.7,29.95,NW,307,3.0,11.0,89,0.00,,,0.04,Wunderground v.1.15,2013-04-16 19:58:00,
2013-04-16 16:03:00,54.2,51.6,29.95,North,360,2.0,5.0,91,0.06,,,0.05,Wunderground v.1.15,2013-04-16 20:03:00,
2013-04-16 16:08:00,53.6,51.3,29.95,WNW,303,5.0,10.0,92,0.13,,,0.06,Wunderground v.1.15,2013-04-16 20:08:00,
2013-04-16 16:13:00,52.2,49.7,29.96,North,349,6.0,13.0,91,0.20,,,0.08,Wunderground v.1.15,2013-04-16 20:13:00,
2013-04-16 16:18:00,50.5,48.0,29.97,WNW,290,10.0,14.0,91,0.32,,,0.10,Wunderground v.1.15,2013-04-16 20:18:00,
2013-04-16 16:23:00,49.0,46.8,29.97,NW,311,14.0,14.0,92,0.25,,,0.12,Wunderground v.1.15,2013-04-16 20:23:00,
2013-04-16 16:28:00,48.1,46.2,29.98,North,355,11.0,17.0,93,0.12,,,0.13,Wunderground v.1.15,2013-04-16 20:28:00,
2013-04-16 16:33:00,47.8,46.2,29.98,NW,307,7.0,13.0,94,0.11,,,0.14,Wunderground v.1.15,2013-04-16 20:33:00,
2013-04-16 16:38:00,47.6,46.2,29.98,North,355,4.0,13.0,95,0.10,,,0.14,Wunderground v.1.15,2013-04-16 20:38:00,
2013-04-16 16:43:00,47.5,46.1,30.00,NW,306,10.0,12.0,95,0.08,,,0.15,Wunderground v.1.15,2013-04-16 20:43:00,
2013-04-16 16:48:00,47.3,45.9,29.99,WNW,288,8.0,12.0,95,0.07,,,0.15,Wunderground v.1.15,2013-04-16 20:48:00,
2013-04-16 16:53:00,47.2,46.1,30.00,WNW,296,3.0,19.0,96,0.04,,,0.15,Wunderground v.1.15,2013-04-16 20:53:00,
2013-04-16 16:58:00,47.2,46.1,30.00,WNW,287,5.0,19.0,96,0.00,,,0.15,Wunderground v.1.15,2013-04-16 20:58:00,
2013-04-16 17:03:00,47.0,45.9,30.01,NW,324,3.0,8.0,96,0.00,,,0.15,Wunderground v.1.15,2013-04-16 21:03:00,
2013-04-16 17:09:00,47.0,45.9,30.01,WNW,300,5.0,9.0,96,0.00,,,0.16,Wunderground v.1.15,2013-04-16 21:09:00,
2013-04-16 17:14:00,47.2,46.1,30.01,West,273,5.0,10.0,96,0.07,,,0.17,Wunderground v.1.15,2013-04-16 21:14:00,
2013-04-16 17:19:00,47.4,46.3,30.01,NNW,327,1.0,10.0,96,0.07,,,0.17,Wunderground v.1.15,2013-04-16 21:19:00,
2013-04-16 17:24:00,47.6,46.5,30.01,WNW,290,4.0,11.0,96,0.05,,,0.17,Wunderground v.1.15,2013-04-16 21:24:00,
2013-04-16 17:29:00,47.8,47.0,30.01,WNW,300,5.0,11.0,97,0.04,,,0.17,Wunderground v.1.15,2013-04-16 21:29:00,
2013-04-16 17:34:00,48.1,47.3,30.01,WNW,294,7.0,7.0,97,0.00,,,0.17,Wunderground v.1.15,2013-04-16 21:34:00,
2013-04-16 17:39:00,48.2,48.2,30.02,WNW,286,3.0,14.0,100,0.00,,,0.17,Wunderground v.1.15,2013-04-16 21:39:00,
2013-04-16 17:44:00,48.3,47.5,30.02,West,265,4.0,9.0,97,0.00,,,0.17,Wunderground v.1.15,2013-04-16 21:44:00,
2013-04-16 17:49:00,48.4,47.6,30.03,WNW,288,7.0,13.0,97,0.00,,,0.17,Wunderground v.1.15,2013-04-16 21:49:00,
2013-04-16 17:54:00,48.4,47.6,30.03,WNW,295,4.0,12.0,97,0.00,,,0.17,Wunderground v.1.15,2013-04-16 21:54:00,
2013-04-16 17:59:00,48.4,47.6,30.03,WNW,288,5.0,12.0,97,0.00,,,0.18,Wunderground v.1.15,2013-04-16 21:59:00,
2013-04-16 18:04:00,48.5,47.7,30.03,NW,325,4.0,7.0,97,0.00,,,0.18,Wunderground v.1.15,2013-04-16 22:04:00,
2013-04-16 18:09:00,48.6,47.8,30.04,WNW,292,3.0,9.0,97,0.00,,,0.18,Wunderground v.1.15,2013-04-16 22:09:00,
2013-04-16 18:14:00,48.7,47.9,30.05,West,271,2.0,10.0,97,0.00,,,0.18,Wunderground v.1.15,2013-04-16 22:14:00,
2013-04-16 18:19:00,48.8,48.0,30.05,WNW,283,5.0,10.0,97,0.00,,,0.18,Wunderground v.1.15,2013-04-16 22:19:00,
2013-04-16 18:24:00,48.9,48.1,30.04,WNW,292,4.0,7.0,97,0.00,,,0.18,Wunderground v.1.15,2013-04-16 22:24:00,
2013-04-16 18:29:00,49.1,48.3,30.05,NW,309,4.0,7.0,97,0.00,,,0.18,Wunderground v.1.15,2013-04-16 22:29:00,
2013-04-16 18:34:00,49.2,48.4,30.05,WNW,295,2.0,7.0,97,0.00,,,0.18,Wunderground v.1.15,2013-04-16 22:34:00,
2013-04-16 18:39:00,49.4,48.6,30.05,WNW,292,3.0,7.0,97,0.00,,,0.18,Wunderground v.1.15,2013-04-16 22:39:00,
2013-04-16 18:44:00,49.6,48.8,30.06,NW,313,7.0,7.0,97,0.00,,,0.18,Wunderground v.1.15,2013-04-16 22:44:00,
2013-04-16 18:49:00,49.7,48.9,30.06,NW,306,3.0,7.0,97,0.00,,,0.18,Wunderground v.1.15,2013-04-16 22:49:00,
2013-04-16 18:54:00,49.9,49.1,30.06,NNW,329,2.0,4.0,97,0.00,,,0.18,Wunderground v.1.15,2013-04-16 22:54:00,
2013-04-16 18:59:00,50.0,49.2,30.07,WNW,297,4.0,7.0,97,0.00,,,0.18,Wunderground v.1.15,2013-04-16 22:59:00,
2013-04-16 19:04:00,50.1,49.3,30.07,West,281,5.0,5.0,97,0.00,,,0.18,Wunderground v.1.15,2013-04-16 23:04:00,
2013-04-16 19:09:00,50.1,49.3,30.07,NW,313,4.0,8.0,97,0.00,,,0.18,Wunderground v.1.15,2013-04-16 23:09:00,
2013-04-16 19:14:00,50.1,49.3,30.07,North,9,2.0,6.0,97,0.00,,,0.18,Wunderground v.1.15,2013-04-16 23:14:00,
2013-04-16 19:19:00,49.9,49.1,30.07,NW,313,3.0,6.0,97,0.00,,,0.18,Wunderground v.1.15,2013-04-16 23:19:00,
2013-04-16 19:24:00,49.7,48.9,30.08,WNW,294,7.0,9.0,97,0.00,,,0.18,Wunderground v.1.15,2013-04-16 23:24:00,
2013-04-16 19:29:00,49.6,48.8,30.08,WSW,244,6.0,9.0,97,0.00,,,0.18,Wunderground v.1.15,2013-04-16 23:29:00,
2013-04-16 19:34:00,49.2,48.4,30.08,West,277,4.0,9.0,97,0.00,,,0.18,Wunderground v.1.15,2013-04-16 23:34:00,
2013-04-16 19:40:00,49.0,48.2,30.09,WNW,302,1.0,4.0,97,0.00,,,0.18,Wunderground v.1.15,2013-04-16 23:40:00,
2013-04-16 19:45:00,48.9,48.1,30.09,WNW,294,4.0,6.0,97,0.00,,,0.18,Wunderground v.1.15,2013-04-16 23:45:00,
2013-04-16 19:50:00,48.7,47.9,30.09,West,263,3.0,5.0,97,0.00,,,0.18,Wunderground v.1.15,2013-04-16 23:50:00,
2013-04-16 19:54:00,48.6,47.5,30.09,West,273,1.0,5.0,96,0.00,,,0.18,Wunderground v.1.15,2013-04-16 23:54:00,
2013-04-16 20:00:00,48.6,47.5,30.10,WNW,292,3.0,4.0,96,0.00,,,0.18,Wunderground v.1.15,2013-04-17 00:00:00,
2013-04-16 20:05:00,48.6,47.5,30.10,WNW,294,2.0,4.0,96,0.00,,,0.18,Wunderground v.1.15,2013-04-17 00:05:00,
2013-04-16 20:10:00,48.6,47.5,30.10,WNW,294,0.0,2.0,96,0.00,,,0.18,Wunderground v.1.15,2013-04-17 00:10:00,
2013-04-16 20:15:00,48.5,47.4,30.10,WNW,294,0.0,2.0,96,0.00,,,0.18,Wunderground v.1.15,2013-04-17 00:15:00,
2013-04-16 20:20:00,48.5,47.4,30.11,NW,321,2.0,2.0,96,0.00,,,0.18,Wunderground v.1.15,2013-04-17 00:20:00,
2013-04-16 20:25:00,48.4,47.3,30.11,NW,321,0.0,2.0,96,0.00,,,0.18,Wunderground v.1.15,2013-04-17 00:25:00,
2013-04-16 20:30:00,48.2,47.1,30.12,NW,311,0.0,1.0,96,0.00,,,0.18,Wunderground v.1.15,2013-04-17 00:30:00,
2013-04-16 20:35:00,47.9,46.8,30.12,NW,321,2.0,4.0,96,0.00,,,0.18,Wunderground v.1.15,2013-04-17 00:35:00,
2013-04-16 20:40:00,47.3,45.9,30.13,North,5,4.0,11.0,95,0.00,,,0.18,Wunderground v.1.15,2013-04-17 00:40:00,
2013-04-16 20:45:00,46.8,45.4,30.13,WNW,284,5.0,12.0,95,0.00,,,0.18,Wunderground v.1.15,2013-04-17 00:45:00,
2013-04-16 20:50:00,46.5,44.9,30.14,NW,304,7.0,13.0,94,0.00,,,0.18,Wunderground v.1.15,2013-04-17 00:50:00,
2013-04-16 20:55:00,46.3,43.5,30.15,NW,318,7.0,13.0,90,0.00,,,0.18,Wunderground v.1.15,2013-04-17 00:55:00,
2013-04-16 21:00:00,46.0,42.6,30.15,WNW,300,2.0,8.0,88,0.00,,,0.18,Wunderground v.1.15,2013-04-17 01:00:00,
2013-04-16 21:05:00,45.8,42.2,30.15,WSW,246,2.0,10.0,87,0.00,,,0.18,Wunderground v.1.15,2013-04-17 01:05:00,
2013-04-16 21:10:00,45.6,42.0,30.16,West,269,1.0,5.0,87,0.00,,,0.18,Wunderground v.1.15,2013-04-17 01:10:00,
2013-04-16 21:16:00,45.4,41.5,30.16,NNW,344,4.0,12.0,86,0.00,,,0.18,Wunderground v.1.15,2013-04-17 01:16:00,
2013-04-16 21:21:00,45.3,41.1,30.16,NW,320,3.0,6.0,85,0.00,,,0.18,Wunderground v.1.15,2013-04-17 01:21:00,
2013-04-16 21:26:00,45.1,40.2,30.16,West,273,1.0,12.0,83,0.00,,,0.18,Wunderground v.1.15,2013-04-17 01:26:00,
2013-04-16 21:31:00,44.9,40.4,30.16,WNW,293,4.0,5.0,84,0.00,,,0.18,Wunderground v.1.15,2013-04-17 01:31:00,
2013-04-16 21:36:00,44.7,40.2,30.17,WNW,287,4.0,8.0,84,0.00,,,0.18,Wunderground v.1.15,2013-04-17 01:36:00,
2013-04-16 21:41:00,44.5,39.7,30.17,WNW,282,0.0,5.0,83,0.00,,,0.18,Wunderground v.1.15,2013-04-17 01:41:00,
2013-04-16 21:46:00,44.4,39.6,30.17,North,355,2.0,9.0,83,0.00,,,0.18,Wunderground v.1.15,2013-04-17 01:46:00,
2013-04-16 21:51:00,44.3,38.8,30.17,WNW,297,2.0,3.0,81,0.00,,,0.18,Wunderground v.1.15,2013-04-17 01:51:00,
2013-04-16 21:56:00,44.3,38.5,30.18,NW,319,2.0,7.0,80,0.00,,,0.18,Wunderground v.1.15,2013-04-17 01:56:00,
2013-04-16 22:01:00,44.3,37.9,30.18,WNW,291,6.0,6.0,78,0.00,,,0.18,Wunderground v.1.15,2013-04-17 02:01:00,
2013-04-16 22:06:00,44.3,37.5,30.18,WNW,290,2.0,6.0,77,0.00,,,0.18,Wunderground v.1.15,2013-04-17 02:06:00,
2013-04-16 22:11:00,44.3,37.5,30.18,WNW,298,4.0,5.0,77,0.00,,,0.18,Wunderground v.1.15,2013-04-17 02:11:00,
2013-04-16 22:16:00,44.2,37.1,30.19,West,268,2.0,5.0,76,0.00,,,0.18,Wunderground v.1.15,2013-04-17 02:16:00,
2013-04-16 22:21:00,44.1,37.0,30.19,West,277,4.0,4.0,76,0.00,,,0.18,Wunderground v.1.15,2013-04-17 02:21:00,
2013-04-16 22:26:00,44.0,37.3,30.20,NW,313,0.0,4.0,77,0.00,,,0.18,Wunderground v.1.15,2013-04-17 02:26:00,
2013-04-16 22:32:00,43.9,36.5,30.20,West,267,2.0,5.0,75,0.00,,,0.18,Wunderground v.1.15,2013-04-17 02:32:00,
2013-04-16 22:37:00,44.1,36.7,30.20,West,279,2.0,8.0,75,0.00,,,0.18,Wunderground v.1.15,2013-04-17 02:37:00,
2013-04-16 22:42:00,44.0,36.6,30.20,West,276,2.0,6.0,75,0.00,,,0.18,Wunderground v.1.15,2013-04-17 02:42:00,
2013-04-16 22:47:00,44.0,36.6,30.20,WNW,296,1.0,6.0,75,0.00,,,0.18,Wunderground v.1.15,2013-04-17 02:47:00,
2013-04-16 22:52:00,43.9,36.5,30.21,WNW,296,4.0,7.0,75,0.00,,,0.18,Wunderground v.1.15,2013-04-17 02:52:00,
2013-04-16 22:57:00,43.9,36.5,30.22,WSW,250,4.0,7.0,75,0.00,,,0.18,Wunderground v.1.15,2013-04-17 02:57:00,
2013-04-16 23:02:00,43.9,36.1,30.22,NNW,328,0.0,4.0,74,0.00,,,0.18,Wunderground v.1.15,2013-04-17 03:02:00,
2013-04-16 23:07:00,43.8,36.7,30.22,West,269,4.0,4.0,76,0.00,,,0.18,Wunderground v.1.15,2013-04-17 03:07:00,
2013-04-16 23:12:00,43.8,36.0,30.22,West,281,4.0,8.0,74,0.00,,,0.18,Wunderground v.1.15,2013-04-17 03:12:00,
2013-04-16 23:17:00,43.9,36.1,30.22,NW,308,4.0,8.0,74,0.00,,,0.18,Wunderground v.1.15,2013-04-17 03:17:00,
2013-04-16 23:22:00,43.8,35.7,30.22,SW,228,0.0,5.0,73,0.00,,,0.18,Wunderground v.1.15,2013-04-17 03:22:00,
2013-04-16 23:27:00,43.8,35.7,30.22,NW,304,7.0,12.0,73,0.00,,,0.18,Wunderground v.1.15,2013-04-17 03:27:00,
2013-04-16 23:32:00,44.0,35.6,30.22,NNW,331,1.0,5.0,72,0.00,,,0.18,Wunderground v.1.15,2013-04-17 03:32:00,
2013-04-16 23:37:00,44.0,35.6,30.22,WNW,297,4.0,6.0,72,0.00,,,0.18,Wunderground v.1.15,2013-04-17 03:37:00,
2013-04-16 23:42:00,44.0,35.2,30.22,NNW,334,1.0,9.0,71,0.00,,,0.18,Wunderground v.1.15,2013-04-17 03:42:00,
2013-04-16 23:47:00,44.0,35.2,30.22,WNW,288,4.0,9.0,71,0.00,,,0.18,Wunderground v.1.15,2013-04-17 03:47:00,
2013-04-16 23:53:00,43.9,35.1,30.21,WNW,288,6.0,6.0,71,0.00,,,0.18,Wunderground v.1.15,2013-04-17 03:53:00,
2013-04-16 23:58:00,43.8,35.0,30.22,North,5,2.0,7.0,71,0.00,,,0.18,Wunderground v.1.15,2013-04-17 03:58:00,